Regional Weather Roundup
Issued by NWS

Home | Current Version | Previous Version | Text Only | Print | Product List | Glossary Off
Versions: 1 2 3 4 5 6 7 8 9 10 11 12 13 14 15 16 17 18 19 20 21 22 23 24 25 26 27 28 29 30 31 32 33 34 35 36 37 38 39 40 41 42 43 44 45 46 47 48 49 50

000
ASUS44 KMEG 020410
RWRTN
TENNESSEE HOURLY STATE WEATHER ROUNDUP
NATIONAL WEATHER SERVICE MEMPHIS TN
1100 PM CDT SAT AUG 01 2015

TNZ002-004-019-021-049-052-054-088>092-020500-
WEST TENNESSEE

CITY           SKY/WX    TMP DP  RH WIND       PRES   REMARKS
MEMPHIS INTL   PTCLDY    83  66  56 CALM      29.97S
NWS MEMPHIS      N/A     75 N/A N/A MISG        N/A
JACKSON        CLEAR     73  69  87 CALM      29.98S
DYERSBURG        N/A    N/A N/A N/A MISG        N/A
PARIS          CLEAR     70  68  94 CALM      30.00S
LEXINGTON      CLEAR     73  72  94 CALM      29.98S
$$

TNZ008-025-027-028-033-062-065-066-020500-
NORTH MIDDLE TENNESSEE

CITY           SKY/WX    TMP DP  RH WIND       PRES   REMARKS
NASHVILLE      PTCLDY    76  62  62 NE5       30.00S
CLARKSVILLE    CLEAR     70  65  84 CALM      29.99S
SMYRNA         PTCLDY    73  64  73 CALM      30.01R
CROSSVILLE     CLEAR     72  60  66 N5        30.06S
$$

TNZ061-075-076-078-094-096-097-020500-
SOUTH MIDDLE TENNESSEE

CITY           SKY/WX    TMP DP  RH WIND       PRES   REMARKS
FAYETTEVILLE   CLEAR     73  63  68 NE5       30.00S
TULLAHOMA      CLEAR     70  64  83 CALM      30.02S
WINCHESTER     CLEAR     68  64  88 CALM      30.01S
MCMINNVILLE    CLEAR     68  68 100 CALM      30.02R
COLUMBIA       CLEAR     73  73 100 CALM      29.99R
SHELBYVILLE    CLEAR     70  68  94 CALM      30.01S
$$

TNZ017-018-042-046-047-020500-
NORTHEAST TENNESSEE

CITY           SKY/WX    TMP DP  RH WIND       PRES   REMARKS
TRI CITIES     PTCLDY    66  61  84 CALM      30.02R
ELIZABETHTON   CLEAR     63  59  88 CALM      30.03S
$$

TNZ012-013-036-069-073-074-020500-
CENTRAL EAST TENNESSEE

CITY           SKY/WX    TMP DP  RH WIND       PRES   REMARKS
KNOXVILLE      PTCLDY    74  67  78 NE3       29.99R
OAK RIDGE      CLEAR     71  64  78 CALM      30.01S
GATLINBURG     PTCLDY    70  61  73 CALM      30.00R
MORRISTOWN     CLEAR     70  64  83 SE3       30.02S
$$

TNZ083-085-099-020500-
SOUTHEAST TENNESSEE

CITY           SKY/WX    TMP DP  RH WIND       PRES   REMARKS
CHATTANOOGA    PTCLDY    75  68  78 NW3       29.98S
$$

SKY/WX REPORTED AS FAIR MEANS FEW OR NO CLOUDS BELOW
12 THOUSAND FEET.



USA.gov is the U.S. government's official web portal to all federal, state and local government web resources and services.